Location: Lombard
(41.8800°N, 88.0080°W)
Time: 20:15:34
(UTC-05:00)

ZACube-1 - Pass Details

Date: 25 May 2022
Orbit: 581 x 662 km, 97.6° (Epoch: 29 June)

Event Time Altitude Azimuth Distance (km) Brightness Sun altitude
Rises 03:54:09 0° 29° (NNE) 2,810 ? -14.0°
Reaches altitude 10° 03:56:50 10° 47° (NE) 1,905 ? -13.6°
Maximum altitude 03:59:47 19° 93° (E) 1,415 ? -13.2°
Drops below altitude 10° 04:02:45 10° 139° (SE) 1,904 ? -12.8°
Sets 04:05:26 0° 158° (SSE) 2,808 ? -12.5°
